Dar es Salaam, Tanzania

10:54 PM EAT on December 06, 2016 (GMT +0300)
Dar es Salaam International

Weather History for HTDA - April, 2013

Change the Weather History Date:

Thursday, April 4, 2013

  Actual Average Record
Temperature  
Mean Temperature 84 °F -  
Max Temperature 91 °F 84 °F 91 °F (2006)
Min Temperature 77 °F 75 °F 73 °F (2007)
Cooling Degree Days 19    
Growing Degree Days 34 (Base 50)    
Moisture  
Dew Point 77 °F    
Average Humidity 85    
Maximum Humidity 100    
Minimum Humidity 52    
Precipitation  
Precipitation 0.00 in - - ()
Sea Level Pressure  
Sea Level Pressure 29.85 in    
Wind  
Wind Speed 3 mph ()    
Max Wind Speed 12 mph    
Max Gust Speed -    
Visibility 9.6 miles    
Events Rain , Thunderstorm    
Averages and records for this station are not official NWS values.
T = Trace of Precipitation, MM = Missing Value Source: Averaged Metar Reports

Daily Weather History Graph

Daily Weather History Graph

Search for Another Location

Airport or City:

Trip Planner

Search our weather history database for the weather conditions in past years. The results will help you decide how hot, cold, wet, or windy it might be!

Date:

Astronomy

Apr. 04, 2013 Rise Set
Actual Time 6:25 AM EAT 6:26 PM EAT
Civil Twilight 6:04 AM EAT 6:47 PM EAT
Nautical Twilight 5:40 AM EAT 7:11 PM EAT
Astronomical Twilight 5:16 AM EAT 7:35 PM EAT
Moon 1:05 AM EAT (4/4) 1:47 PM EAT (4/4)
Length of Visible Light 12h 42m
Length of Day
12h 00m
Last Quarter, 37% of the Moon is Illuminated
Apr 4
Last Quarter
Apr 10
New
Apr 18
First Quarter
Apr 25
Full
May 2
Last Quarter

Hourly Weather History & Observations

Time (EAT) Temp. Heat Index Dew Point Humidity Pressure Visibility Wind Dir Wind Speed Gust Speed Precip Events Conditions
12:00 AM 81 °F - 77 °F 85% 29.87 in 19 mi Calm Calm - -   Scattered Clouds
12:00 AM 80.6 °F 87.1 °F 77.0 °F 89% 29.86 in 6.2 mi Calm Calm - N/A   Scattered Clouds
1:00 AM 80.6 °F 87.1 °F 77.0 °F 89% 29.86 in 6.2 mi Calm Calm - N/A   Scattered Clouds
2:00 AM 80.6 °F 87.1 °F 77.0 °F 89% 29.83 in 6.2 mi Calm Calm - N/A   Mostly Cloudy
3:00 AM 79 °F - 78 °F 95% 29.84 in 19 mi Calm Calm - -   Scattered Clouds
4:00 AM 78.8 °F - 77.0 °F 94% 29.83 in 6.2 mi Calm Calm - N/A   Scattered Clouds
5:00 AM 78.8 °F - 77.0 °F 94% 29.83 in 6.2 mi Calm Calm - N/A   Scattered Clouds
6:00 AM 77 °F - 77 °F 98% 29.87 in 19 mi SSW 4.6 mph - -   Scattered Clouds
6:00 AM 77.0 °F - 77.0 °F 100% 29.86 in 6.2 mi SSW 4.6 mph - N/A   Scattered Clouds
7:00 AM 78.8 °F - 77.0 °F 94% 29.89 in 5.0 mi SSE 5.8 mph - N/A Rain Rain
8:00 AM 80.6 °F 88.1 °F 78.8 °F 94% 29.89 in 6.2 mi SSW 5.8 mph - N/A   Scattered Clouds
9:00 AM 82 °F - 78 °F 83% 29.93 in 19 mi WNW 4.6 mph - -   Scattered Clouds
9:00 AM 82.4 °F 90.9 °F 77.0 °F 84% 29.92 in 6.2 mi WNW 4.6 mph - N/A   Partly Cloudy
10:00 AM 87.8 °F 102.5 °F 78.8 °F 75% 29.92 in 6.2 mi NNE 6.9 mph - N/A   Partly Cloudy
12:00 PM 90 °F - 75 °F 52% 29.88 in 19 mi East 10.4 mph - -   Scattered Clouds
12:00 PM 89.6 °F 99.8 °F 75.2 °F 62% 29.86 in 6.2 mi East 10.4 mph - N/A   Partly Cloudy
3:00 PM 87.8 °F 97.6 °F 75.2 °F 66% 29.77 in 6.2 mi NNE 11.5 mph - N/A Thunderstorm Thunderstorm
4:00 PM 87.8 °F 102.5 °F 78.8 °F 75% 3.19 in 6.2 mi SE 10.4 mph - N/A   Light Drizzle
5:00 PM 86.0 °F 96.9 °F 77.0 °F 74% 29.77 in 6.2 mi East 11.5 mph - N/A   Partly Cloudy
6:00 PM 84 °F - 78 °F 78% 29.79 in 19 mi East 5.8 mph - -   Scattered Clouds
6:00 PM 84.2 °F 96.1 °F 78.8 °F 84% 29.77 in 6.2 mi East 5.8 mph - N/A   Scattered Clouds
7:00 PM 82.4 °F 90.9 °F 77.0 °F 84% 29.80 in 6.2 mi ESE 6.9 mph - N/A   Partly Cloudy
8:00 PM 80.6 °F 87.1 °F 77.0 °F 89% 29.83 in 6.2 mi East 5.8 mph - N/A   Partly Cloudy
9:00 PM 81 °F - 78 °F 88% 29.86 in 19 mi ESE 3.5 mph - -   Scattered Clouds
10:00 PM 80.6 °F 88.1 °F 78.8 °F 94% 29.86 in 6.2 mi Calm Calm - N/A   Partly Cloudy
11:00 PM 80.6 °F 87.1 °F 77.0 °F 89% 29.89 in 6.2 mi Calm Calm - N/A   Partly Cloudy